Tracking 19176 objects as of 27-May-2018
HD Live streaming from Space Station
objects crossing your sky now

COSMOS 2162

Track COSMOS 2162 now!
10-day predictions
COSMOS 2162 is classified as:


NORAD ID: 21733
Int'l Code: 1991-068F
Perigee: 1,414.1 km
Apogee: 1,426.4 km
Inclination: 82.6 °
Period: 114.1 minutes
Semi major axis: 7791 km
RCS: 1.159 m2 (large)
Launch date: September 28, 1991
Source: Commonwealth of Independent States (former USSR) (CIS)
Launch site: PLESETSK MISSILE AND SPACE COMPLEX (PKMTR)
aabbcc
Your satellite tracking list
Your tracking list is empty




NASA's NSSDC Master Catalog

Two Line Element Set (TLE):
1 21733U 91068F   18146.87156182 +.00000012 +00000-0 +67178-5 0  9995
2 21733 082.5907 055.3513 0007905 055.0042 014.7911 12.62376362228562
Source of the keplerian elements: AFSPC